Home > Time Zones > World Clock > Weather > Germany > Ulm > Past weeks

Flag Weather past 2 weeks in Ulm, Baden-Württemberg, Germany

Now
37 °F

Fog.


Feels Like: 34 °F
Forecast: 34 / 41 °F
Wind: 5 mph from Northeast

Location: Laupheim Airport

Current Time: Nov 27, 2014 at 7:59:23 AM

Latest Report: Nov 27, 2014 at 7:20 AM


Visibility: 0 mi

Pressure: 29.83 "Hg

Humidity: 100%

Dew point: 37 °F

Location of UlmLocation

Historic Weather in Ulm — Graph

°F

Ulm temperature yesterday

Maximum temperature yesterday: 39 °F (at 10:20 AM)
Minimum temperature yesterday: 37 °F (at 12:20 AM)
Average temperature yesterday: 38 °F

Past Weeks' High & Low Weather Summary

 TemperatureHumidityPressure
High55 °F (Nov 24, 1:20 PM)100% (Nov 12, 6:20 AM)30.27 "Hg (Nov 12, 6:20 AM)
Low32 °F (Nov 20, 5:20 AM)71% (Nov 16, 3:20 PM)29.50 "Hg (Nov 15, 11:20 PM)
Average42 °F96%29.95 "Hg
* Reported Nov 12 6:20 AM — Nov 27 6:20 AM, Ulm, Weather by CustomWeather, © 2014

Note: Actual official high and low records may vary slightly from our data, if they occured in-between our weather recording intervals... More about our weather records

Advertising

Ulm weather history for previous 24 hours

 ConditionsComfort  
Time TempWeatherWind HumidityBarometerVisibility
6:20 AM
Nov 27
37 °FFog.5 mph100%29.83 "Hg0 mi
5:20 AM37 °FFog.5 mph100%29.83 "Hg0 mi
4:20 AM37 °FFog.5 mph100%29.86 "Hg0 mi
3:20 AM37 °FFog.6 mph100%29.86 "Hg0 mi
2:20 AM37 °FFog.5 mph100%29.89 "Hg0 mi
1:20 AM37 °FFog.5 mph100%29.89 "Hg0 mi
12:20 AM37 °FFog.5 mph100%29.89 "Hg0 mi
11:20 PM
Nov 26
37 °FFog.5 mph100%29.92 "Hg0 mi
10:20 PM39 °FFog.6 mph93%29.92 "Hg0 mi
9:20 PM39 °FFog.5 mph100%29.95 "Hg0 mi
8:20 PM39 °FFog.7 mph100%29.95 "Hg1 mi
7:20 PM39 °FFog.8 mph100%29.95 "Hg1 mi
6:20 PM39 °FFog.6 mph100%29.95 "Hg1 mi
5:20 PM39 °FDrizzle. Fog.6 mph100%29.95 "Hg1 mi
5:00 PM39 °FDrizzle. Fog.6 mph100%29.95 "Hg1 mi
4:20 PM39 °FDrizzle. Fog.6 mph100%29.95 "Hg1 mi
3:20 PM39 °FFog.7 mph100%29.95 "Hg1 mi
2:20 PM39 °FFog.6 mph100%29.95 "Hg1 mi
1:20 PM39 °FFog.6 mph100%29.98 "Hg1 mi
12:20 PM39 °FFog.6 mph100%29.98 "Hg1 mi
11:20 AM39 °FFog.6 mph100%30.01 "Hg1 mi
10:20 AM39 °FFog.7 mph100%30.01 "Hg1 mi
9:20 AM37 °FFog.7 mph100%30.01 "Hg1 mi
8:20 AM37 °FFog.6 mph100%30.01 "Hg1 mi
7:46 AM37 °FFog.6 mph100%30.01 "Hg1 mi
7:20 AM37 °FFog.6 mph100%30.01 "Hg1 mi
Weather by CustomWeather, © 2014

See weather overviewHow to use our weather pages